Weather History for Shirley, NY

Change the Weather History Date:

Thursday, March 27, 2014

  Actual Average (KISP) Record (KISP)
Temperature  
Mean Temperature 29 °F 43 °F  
Max Temperature 37 °F 51 °F 78 °F (1998)
Min Temperature 21 °F 34 °F 22 °F (2001)
Degree Days  
Heating Degree Days 36 22  
Month to date heating degree days 710  
Since 1 July heating degree days 4605  
Cooling Degree Days 0 0  
Month to date cooling degree days 0  
Year to date cooling degree days 0  
Moisture  
Dew Point 13 °F    
Average Humidity 48    
Maximum Humidity 65    
Minimum Humidity 31    
Precipitation  
Precipitation 0.00 in 0.15 in 0.63 in (2002)
Month to date precipitation 3.88  
Year to date precipitation 10.78  
Snow  
Snow 0.00 in 0.10 in 0.00 in (2006)
Month to date snowfall 4.2  
Since 1 July snowfall 23.9  
Snow Depth -    
Sea Level Pressure  
Sea Level Pressure 30.35 in    
Wind  
Wind Speed 10 mph (WSW)    
Max Wind Speed 15 mph    
Max Gust Speed 21 mph    
Visibility 10 miles    
Events      
T = Trace of Precipitation, MM = Missing Value Source: NWS Daily Summary

Daily Weather History Graph

Daily Weather History Graph

Search for Another Location

Airport:

Trip Planner

Search our weather history database for the weather conditions in past years. The results will help you decide how hot, cold, wet, or windy it might be!

Date:

Astronomy

Mar. 27, 2014 Rise Set
Actual Time 6:43 AM EDT 7:11 PM EDT
Civil Twilight 6:15 AM EDT 7:38 PM EDT
Nautical Twilight 5:43 AM EDT 8:10 PM EDT
Astronomical Twilight 5:10 AM EDT 8:44 PM EDT
Moon 4:33 AM EDT (3/27) 3:54 PM EDT (3/27)
Length of Visible Light 13h 22m
Length of Day
12h 27m
Waning Crescent, 13% of the Moon is Illuminated
Mar 27
Waning Crescent
Mar 30
New
Apr 7
First Quarter
Apr 15
Full
Apr 22
Last Quarter

Hourly Weather History & Observations

Time (EDT) Temp. Windchill Dew Point Humidity Pressure Visibility Wind Dir Wind Speed Gust Speed Precip Events Conditions
12:56 AM 24.1 °F 12.5 °F 3.0 °F 40% 30.21 in 10.0 mi WNW 12.7 mph 20.7 mph N/A   Clear
1:56 AM 23.0 °F 11.7 °F 3.9 °F 44% 30.24 in 10.0 mi WNW 11.5 mph - N/A   Clear
2:56 AM 23.0 °F 13.9 °F 5.0 °F 46% 30.27 in 10.0 mi WNW 8.1 mph - N/A   Clear
3:56 AM 21.9 °F 11.0 °F 6.1 °F 51% 30.29 in 10.0 mi WNW 10.4 mph - N/A   Clear
4:56 AM 21.9 °F 12.5 °F 7.0 °F 53% 30.32 in 10.0 mi NW 8.1 mph - N/A   Clear
5:56 AM 21.9 °F 11.7 °F 8.1 °F 55% 30.35 in 10.0 mi NNW 9.2 mph - N/A   Clear
6:56 AM 21.9 °F 12.5 °F 8.1 °F 55% 30.37 in 10.0 mi NW 8.1 mph - N/A   Clear
7:56 AM 25.0 °F 15.5 °F 9.0 °F 51% 30.39 in 10.0 mi NW 9.2 mph - N/A   Clear
8:56 AM 28.0 °F 19.3 °F 9.0 °F 45% 30.41 in 10.0 mi NW 9.2 mph - N/A   Clear
9:56 AM 30.0 °F 24.1 °F 6.1 °F 36% 30.40 in 10.0 mi Variable 5.8 mph - N/A   Clear
10:56 AM 33.1 °F 26.1 °F 7.0 °F 34% 30.43 in 10.0 mi WNW 8.1 mph - N/A   Clear
11:56 AM 35.1 °F 29.3 °F 7.0 °F 31% 30.41 in 10.0 mi WNW 6.9 mph - N/A   Clear
12:56 PM 37.0 °F 29.3 °F 12.0 °F 36% 30.38 in 10.0 mi SSW 11.5 mph 18.4 mph N/A   Clear
1:56 PM 35.1 °F 25.5 °F 15.1 °F 44% 30.38 in 10.0 mi SSW 15.0 mph 20.7 mph N/A   Clear
2:56 PM 36.0 °F 27.5 °F 16.0 °F 44% 30.37 in 10.0 mi SSW 12.7 mph - N/A   Clear
3:56 PM 36.0 °F 28.0 °F 15.1 °F 43% 30.36 in 10.0 mi SW 11.5 mph - N/A   Clear
4:56 PM 36.0 °F 29.0 °F 14.0 °F 41% 30.35 in 10.0 mi SW 9.2 mph - N/A   Clear
5:56 PM 35.1 °F 26.9 °F 17.1 °F 48% 30.36 in 10.0 mi SW 11.5 mph - N/A   Clear
6:56 PM 36.0 °F 29.0 °F 21.0 °F 55% 30.36 in 10.0 mi SSW 9.2 mph - N/A   Clear
7:56 PM 35.1 °F 27.9 °F 21.9 °F 59% 30.34 in 10.0 mi South 9.2 mph - N/A   Clear
8:56 PM 37.0 °F 29.8 °F 24.1 °F 59% 30.34 in 10.0 mi SSW 10.4 mph - N/A   Clear
9:56 PM 37.0 °F 28.5 °F 25.0 °F 62% 30.34 in 10.0 mi SSW 13.8 mph - N/A   Clear
10:56 PM 37.0 °F 28.5 °F 25.0 °F 62% 30.33 in 10.0 mi SSW 13.8 mph - N/A   Clear
11:56 PM 37.0 °F 29.8 °F 26.1 °F 65% 30.31 in 10.0 mi SSW 10.4 mph - N/A   Clear